Location: Fort Worth, Tx
(32.7431°N, 97.3695°W)
Time: 15:08:15
(UTC-04:00)

Transit 2A - Pass Details

Date: 28 February 2024
Orbit: 596 x 956 km, 66.7° (Epoch: 21 April)

Event Time Altitude Azimuth Distance (km) Brightness Sun altitude
Exits shadow 06:51:43 23° 266° (W) 1,644 7.1 -14.9°
Maximum altitude 06:52:36 24° 251° (WSW) 1,620 7.1 -14.7°
Drops below altitude 10° 06:56:59 10° 200° (SSW) 2,458 8.4 -13.8°
Sets 07:00:01 0° 187° (S) 3,452 9.3 -13.2°
